Theta_e
319 321 322 324 324 325 327 328 328 326 323 315 315 316 314 320 319 320 320 319 320 318 319 319 319 319 320 319 320 319 319 320 320 323 327 334 331 336 336 330 340 340 343 345 341 341 342 344 344 345 345 344 344 344 343 342 340 339 338 335 335 336 338 339 339 340 339 339 339 339 339 340 340 340 339 339 339 339 339 338 336 334 332 332 333 332 331 330 327 326 324 322 318 314 315 319 321
319 321 323 325 324 327 332 329 325 320 317 314 314 315 315 320 319 319 319 319 319 318 319 319 320 319 320 320 320 319 320 321 321 325 329 333 330 333 332 331 340 341 343 345 342 340 342 344 343 345 344 345 344 344 344 342 341 339 338 336 335 336 338 339 339 339 339 338 339 338 338 339 339 339 339 339 339 339 339 339 339 338 336 335 335 331 330 330 328 327 326 324 322 315 310 312 315
319 322 323 324 326 327 332 328 322 317 314 313 313 316 318 318 317 318 318 318 319 319 319 319 320 319 320 320 320 320 321 322 323 325 329 332 332 332 328 328 339 342 343 345 343 340 342 343 343 344 344 345 345 344 344 342 341 339 339 336 335 336 337 338 338 339 338 338 338 338 337 338 337 338 339 339 339 338 338 338 338 338 338 337 335 332 332 332 330 328 328 326 324 318 309 307 311
321 325 324 322 329 329 330 329 324 318 314 312 312 317 319 317 317 317 317 318 318 318 318 319 319 318 320 319 320 320 320 322 324 325 331 333 332 331 327 327 337 342 342 344 344 341 343 344 343 344 344 345 345 344 344 343 341 340 339 337 336 336 337 336 337 337 337 337 337 337 337 337 335 336 338 338 338 338 338 338 338 338 338 336 334 333 333 332 331 330 328 327 323 317 308 305 308
322 326 324 323 331 329 327 326 323 319 315 315 314 318 319 317 317 316 317 317 318 317 318 319 318 318 318 319 320 320 320 322 325 327 334 333 330 332 332 332 337 341 342 343 343 342 343 344 342 343 344 344 345 344 343 343 342 341 340 338 336 335 337 335 335 336 337 337 336 335 336 336 334 335 337 337 337 337 338 338 337 338 337 336 335 334 334 332 331 330 328 325 321 313 307 304 303
322 324 324 324 328 325 325 321 318 318 319 319 316 318 318 317 317 317 317 317 317 316 317 318 317 318 318 319 320 321 323 321 324 330 334 331 330 335 338 336 337 339 342 343 342 342 344 344 342 342 344 344 345 344 343 343 342 341 340 339 336 334 336 335 333 334 336 335 334 334 334 335 335 334 335 335 336 337 337 337 337 338 337 336 335 336 334 332 331 330 327 323 317 310 305 302 300
322 324 327 328 328 324 327 321 318 319 319 321 318 318 318 317 317 317 317 317 316 316 316 317 317 317 318 320 320 322 325 322 326 332 333 331 331 335 339 338 337 340 342 343 343 343 344 344 342 341 343 345 344 344 343 343 342 341 340 339 337 334 336 335 332 332 333 333 333 334 335 336 336 334 333 333 334 336 336 336 337 337 337 335 335 335 333 331 330 328 325 321 314 307 303 300 300
323 326 328 328 329 325 325 322 320 321 319 320 318 318 317 317 318 317 317 316 317 317 316 316 317 316 317 320 319 321 327 326 327 332 332 330 332 335 339 340 337 340 342 343 343 343 344 344 343 341 343 344 344 344 343 343 342 341 340 339 337 334 336 336 332 330 331 332 334 335 336 337 336 336 335 334 334 335 336 337 337 337 336 335 334 334 332 331 330 327 323 319 312 305 302 299 299
323 326 327 327 328 322 321 321 320 320 319 319 318 318 318 317 318 318 317 316 317 317 316 316 317 316 317 319 317 318 323 327 324 327 332 327 329 333 337 341 340 341 343 343 343 342 343 343 342 341 342 344 344 344 343 343 342 341 340 339 337 335 335 337 333 331 332 332 334 336 336 337 337 337 336 336 335 335 337 337 337 337 335 334 333 332 332 331 329 325 321 317 312 305 301 299 299
323 324 324 326 325 318 316 319 320 320 320 319 317 317 317 317 317 318 317 317 317 317 316 316 317 315 316 318 317 316 317 322 321 324 331 329 326 328 332 337 340 341 341 343 343 342 341 341 341 341 342 343 343 343 343 343 342 341 340 339 337 335 335 337 334 332 333 332 333 336 336 337 336 337 337 336 336 336 337 337 337 336 335 334 332 332 332 331 328 324 321 317 313 305 300 299 299
325 323 321 322 320 315 315 318 321 321 319 319 318 317 317 317 317 317 317 317 317 317 316 316 317 315 316 318 316 315 313 316 319 323 330 331 326 324 326 333 338 340 340 341 342 341 340 338 338 340 342 342 342 342 343 342 342 341 340 339 337 336 335 336 335 332 333 333 333 335 336 337 336 336 336 336 336 336 336 336 336 335 335 333 332 332 332 330 329 326 322 319 314 307 300 299 299
326 325 321 319 318 318 317 320 321 321 320 319 318 317 317 317 317 317 317 317 317 317 316 315 316 315 316 318 317 314 313 313 316 321 328 331 330 329 328 329 333 336 337 339 340 340 339 338 336 340 342 341 341 341 342 342 341 340 340 339 338 337 335 335 335 333 333 334 334 335 336 336 336 336 337 337 337 336 336 336 335 335 334 333 333 332 331 330 329 327 323 320 316 309 301 299 299
327 325 322 319 321 321 318 320 322 322 321 319 318 316 317 317 316 317 317 317 317 317 316 316 316 316 317 318 317 314 314 313 313 319 327 331 331 333 332 327 327 330 333 336 337 338 339 339 336 339 342 341 341 341 341 341 340 340 340 339 339 338 336 335 335 334 333 333 333 334 335 335 335 336 336 336 337 337 336 336 335 335 334 333 333 331 331 330 328 325 323 320 318 311 302 299 299
327 323 322 321 322 321 318 321 321 320 318 318 317 316 317 316 316 316 317 317 316 316 315 316 315 316 316 316 318 315 314 314 313 319 327 330 330 330 330 326 324 326 331 334 336 336 337 338 337 338 339 340 340 340 340 340 339 339 339 340 338 338 337 335 334 334 333 332 332 333 333 334 334 335 336 336 336 337 336 335 335 334 333 333 332 331 330 328 325 323 321 320 317 313 304 299 299
326 323 323 323 319 317 319 322 321 318 318 318 317 316 317 316 316 316 316 316 316 316 315 315 315 315 317 317 317 315 314 315 315 319 325 329 329 328 329 328 325 326 329 333 334 334 335 336 337 338 338 338 338 338 339 338 337 338 339 339 339 338 337 337 335 334 333 332 331 331 332 332 332 334 335 336 336 336 336 335 335 334 333 332 331 330 330 326 323 321 320 319 316 312 306 300 299
322 323 325 321 317 316 317 320 319 318 318 318 317 317 317 316 316 316 316 316 316 317 316 315 315 315 315 316 315 314 314 315 316 319 322 326 327 325 327 328 326 327 330 332 333 333 333 334 335 338 339 339 338 338 338 338 338 337 338 338 338 338 338 337 335 335 334 333 332 331 331 331 331 332 333 334 335 335 335 334 334 333 333 332 331 330 328 324 322 321 320 319 317 314 309 304 299
322 324 324 319 318 316 316 319 319 318 318 318 317 317 317 317 316 316 315 315 316 317 316 314 314 314 314 314 314 314 315 316 317 319 320 322 324 321 321 323 323 324 326 328 328 329 331 333 334 335 337 338 339 339 340 340 339 338 337 338 338 338 338 336 335 335 334 334 333 331 331 331 331 332 333 333 335 335 334 334 334 333 332 332 330 329 327 323 323 323 322 321 319 318 315 310 304
324 327 322 318 319 317 317 320 319 320 319 317 317 317 317 317 316 316 315 315 316 316 315 314 314 314 314 313 314 314 316 317 318 319 319 319 320 320 319 320 320 320 320 321 321 323 326 329 332 334 334 336 338 339 340 340 340 340 338 337 338 337 337 336 335 335 334 333 333 333 331 331 333 334 334 333 335 334 334 333 333 333 332 331 329 329 327 324 324 324 323 323 321 320 318 316 311
323 326 321 318 319 316 317 318 318 319 319 318 317 316 316 317 316 315 315 316 316 316 315 315 315 314 314 314 314 315 316 317 318 318 319 319 318 318 318 318 318 319 319 320 321 320 321 323 327 331 333 335 337 338 338 339 339 340 339 338 338 337 336 336 336 335 335 334 334 334 333 332 335 336 335 334 334 334 334 333 333 333 331 331 329 329 327 325 325 324 324 323 322 320 319 317 315
321 321 321 319 318 316 316 317 317 318 318 318 317 316 315 316 316 315 316 316 316 316 315 316 316 315 314 313 314 315 315 316 317 318 318 318 318 317 317 317 317 318 318 320 321 320 319 320 323 328 332 334 335 337 337 338 338 338 339 338 339 338 337 337 336 336 336 336 335 335 334 334 336 336 335 334 334 334 334 334 333 332 331 331 330 329 327 325 326 325 324 323 322 321 319 318 316
320 319 320 318 316 316 316 317 317 317 317 317 317 316 315 316 315 315 315 316 317 316 314 315 315 314 314 313 314 314 315 316 316 316 316 316 317 316 315 315 316 317 318 319 319 319 318 318 319 324 330 333 334 336 336 336 337 337 338 338 339 339 338 338 337 337 337 337 337 336 335 335 335 336 335 334 334 334 333 333 333 332 332 331 330 329 327 326 326 325 324 323 322 320 319 318 317
318 318 319 317 317 318 316 317 317 317 316 315 316 316 315 316 315 315 315 317 317 315 313 313 313 313 313 313 313 314 314 315 315 315 315 315 315 315 315 315 315 316 317 317 317 317 318 318 318 319 326 332 332 335 336 335 336 336 337 337 338 339 338 338 337 337 337 337 337 336 336 335 335 336 335 335 334 334 333 333 333 332 332 331 330 330 328 327 326 324 323 323 322 320 319 318 317
318 318 318 318 317 317 317 317 316 316 315 315 316 316 316 316 316 316 316 317 316 313 312 312 311 312 312 313 313 314 314 314 314 314 314 314 314 314 314 314 315 315 316 316 316 317 317 318 320 318 322 330 332 333 335 335 336 336 336 336 336 337 337 337 337 337 337 336 336 336 336 335 335 335 334 334 334 334 334 333 333 332 331 331 331 330 329 328 326 325 324 323 321 320 319 318 317
317 318 318 318 317 317 318 317 316 316 316 316 316 315 316 315 316 316 316 315 313 311 311 311 311 312 312 312 312 313 313 313 314 314 313 313 313 313 313 314 314 314 315 315 315 316 316 318 321 320 321 329 331 332 334 334 335 336 336 336 335 336 336 336 336 336 335 335 335 335 336 335 335 334 333 334 333 333 333 333 333 332 331 331 330 329 329 328 326 325 323 322 321 320 319 319 317
317 318 318 317 316 316 317 317 316 316 315 316 316 315 315 316 315 315 315 313 311 311 311 311 311 312 312 312 312 312 312 312 313 313 313 312 312 312 312 312 313 313 314 315 315 316 317 319 322 322 322 328 330 330 332 333 335 336 336 335 334 335 334 335 335 334 333 333 332 332 333 333 334 334 333 333 333 333 333 332 332 331 330 330 329 328 327 326 325 323 322 322 321 320 320 318 318
317 317 317 316 317 317 317 316 316 316 316 316 316 315 315 315 315 315 315 312 311 311 311 311 311 312 311 311 311 311 311 311 312 312 312 311 311 311 311 312 312 312 314 316 317 317 319 320 322 323 324 327 329 330 331 332 334 335 336 335 334 334 333 333 333 332 331 331 330 330 331 331 332 333 333 333 332 331 332 331 330 330 329 328 328 327 326 325 324 323 322 322 321 320 320 318 318
315 316 316 316 316 317 317 317 316 317 316 316 315 315 316 315 315 315 314 312 311 311 311 312 312 312 311 311 310 310 310 310 311 311 311 310 310 310 310 312 314 314 315 316 317 318 320 321 322 325 326 328 329 330 330 331 333 333 333 333 333 332 332 332 332 331 330 330 329 329 329 330 331 332 333 332 331 331 331 330 330 329 328 327 326 325 325 324 323 323 322 321 321 320 319 318 318
315 315 315 316 316 316 317 316 317 317 316 316 315 315 315 313 314 315 314 311 312 312 311 311 312 312 311 311 310 310 310 310 310 309 309 309 309 309 309 311 314 314 314 316 316 318 320 321 323 326 327 329 329 330 330 331 331 330 331 331 331 330 331 331 330 329 328 328 327 327 327 328 329 330 330 330 330 330 330 329 328 327 327 326 325 325 324 324 323 323 322 321 320 319 319 318 318
315 315 315 317 317 317 318 316 317 317 316 315 314 315 316 313 314 314 312 312 312 313 312 312 312 312 311 311 310 310 309 309 309 308 308 308 308 309 308 310 313 313 313 315 316 317 320 321 322 325 327 328 329 329 329 329 329 329 329 328 328 329 329 329 327 326 326 325 325 325 326 326 327 327 327 327 327 328 328 327 326 326 325 325 324 324 323 323 322 322 321 320 320 319 319 319 318
315 316 316 317 318 318 319 317 317 316 315 314 314 317 318 315 313 313 311 312 313 313 313 313 313 312 311 311 310 310 309 308 308 307 308 307 308 309 309 311 313 313 313 314 316 316 318 321 323 324 326 327 327 328 328 328 328 328 328 327 326 327 327 326 325 325 325 325 325 325 325 325 325 324 324 325 325 325 325 324 324 324 323 324 324 323 322 321 321 321 320 320 319 319 319 318 317
316 317 318 319 319 319 318 317 316 315 314 313 314 318 319 316 313 312 311 312 313 313 313 313 313 312 312 312 311 310 308 308 307 307 307 307 307 308 309 311 312 313 313 313 314 314 316 318 321 323 324 326 325 325 327 326 325 327 326 325 324 324 324 323 323 323 322 323 323 323 324 324 323 323 322 323 323 322 322 322 321 321 321 322 323 321 321 320 319 319 319 319 318 317 317 317 316
317 318 320 321 320 319 318 316 316 316 314 313 315 318 318 315 313 312 312 313 313 314 314 313 313 312 311 311 310 310 308 307 306 306 306 306 305 306 309 311 312 312 312 312 312 313 314 315 319 320 320 323 322 322 324 321 322 324 322 321 321 320 320 319 318 318 318 318 319 319 320 321 321 320 320 320 320 319 319 318 317 317 318 319 320 319 319 317 315 316 317 316 313 313 314 314 313
320 320 320 321 321 320 318 316 316 316 314 313 315 317 318 316 314 312 312 312 313 315 315 313 313 312 311 311 310 310 308 307 306 305 305 305 304 306 310 311 311 312 312 312 311 312 313 314 318 319 318 319 318 319 321 318 319 321 319 318 317 316 316 314 314 314 314 314 315 315 315 316 316 316 316 316 315 314 314 313 312 313 313 314 314 314 313 312 311 311 311 310 309 308 308 307 307
322 321 321 321 321 319 318 317 317 317 316 314 315 316 317 317 315 313 312 312 313 314 315 314 313 312 312 311 311 310 310 308 306 304 305 305 304 305 309 311 311 312 312 311 310 311 311 313 314 315 315 316 315 315 315 314 316 317 316 315 315 314 313 311 311 311 311 310 311 311 311 311 311 311 311 311 311 310 309 308 308 309 309 309 310 309 308 308 308 308 307 307 305 303 302 301 303
322 322 321 321 321 320 320 318 317 317 316 316 317 316 317 318 315 313 313 312 312 313 315 314 313 312 312 311 311 310 310 308 305 304 304 305 305 304 306 309 310 311 311 310 310 310 310 310 311 311 311 312 312 313 312 311 313 314 312 312 312 311 310 310 311 310 309 309 310 309 309 308 308 307 307 307 307 306 305 305 305 306 306 307 307 307 306 306 306 306 305 304 301 299 299 300 302
321 322 322 322 321 321 320 318 317 316 316 318 319 318 318 318 315 313 313 313 313 314 315 315 313 312 312 311 311 311 310 306 304 304 304 304 304 304 305 308 309 309 309 309 309 309 309 309 309 309 308 307 308 309 309 309 309 309 308 308 307 305 305 307 308 307 307 307 307 308 308 307 306 305 304 304 304 304 303 302 302 302 303 303 303 303 303 304 304 304 303 302 299 296 295 297 300
320 322 322 322 321 321 320 318 316 316 318 319 320 321 320 320 318 314 313 314 314 315 315 314 313 312 311 311 311 310 309 306 304 303 304 304 304 304 305 306 306 306 308 309 309 309 309 308 308 308 307 307 306 306 306 306 305 305 304 303 302 301 302 304 304 304 304 303 304 305 305 304 304 304 303 303 302 302 301 300 299 299 299 300 299 300 301 302 303 303 302 301 300 297 294 293 296
320 321 321 322 322 322 321 319 316 317 319 320 320 321 320 320 320 316 313 314 313 314 315 313 312 312 312 311 311 310 308 305 304 303 303 304 304 304 304 304 305 305 306 308 308 308 308 307 307 307 306 306 305 304 305 304 303 304 304 301 301 301 301 302 301 300 300 300 301 301 301 301 301 301 301 301 300 299 298 296 295 294 294 295 295 296 298 300 302 302 301 299 299 298 295 292 293
322 322 321 322 322 322 321 318 316 316 318 320 320 320 320 320 321 318 313 313 313 314 315 314 313 312 312 311 310 309 307 306 305 303 304 304 304 304 304 303 304 305 306 307 307 307 307 306 306 306 305 305 304 304 306 306 305 306 305 303 303 301 298 299 299 298 299 299 299 299 299 299 299 299 299 298 298 296 294 292 291 290 290 290 291 291 292 294 296 297 297 295 295 296 294 291 292
323 322 322 323 322 324 323 319 317 316 318 320 320 320 320 320 321 319 314 314 315 315 315 316 315 313 312 311 310 308 307 306 305 304 303 304 304 303 303 303 304 304 305 305 305 306 306 305 305 305 305 305 304 305 307 307 306 305 304 301 301 299 296 297 297 297 298 297 296 297 296 296 296 295 295 294 293 292 291 290 289 289 289 289 289 289 289 289 290 292 292 292 292 292 292 291 291
323 324 323 323 323 324 324 321 318 317 318 319 319 322 322 321 321 319 316 316 315 313 312 313 313 312 312 312 310 309 308 306 305 304 303 303 304 303 302 303 303 303 304 304 304 304 304 304 304 305 305 305 305 306 306 305 304 302 299 298 297 296 295 295 295 294 293 293 292 292 291 291 291 290 290 290 290 289 289 289 289 289 288 288 288 288 288 288 288 289 289 290 290 290 290 290 289
323 325 323 322 323 324 325 325 322 323 326 321 320 328 330 323 323 321 317 316 314 312 311 311 311 310 310 309 309 308 308 307 305 304 303 303 303 302 302 302 302 302 303 303 303 303 303 303 303 303 304 303 303 303 303 302 301 298 297 296 294 293 292 292 291 290 289 289 289 289 289 289 289 289 289 289 289 289 289 288 288 288 288 287 287 287 287 287 287 287 287 288 289 289 289 289 289
323 328 327 324 322 325 327 327 327 329 330 323 320 328 331 325 324 323 318 314 314 312 311 311 310 309 308 308 307 307 307 307 305 303 302 302 302 302 302 302 301 301 301 301 302 302 302 302 302 302 301 300 300 300 300 299 298 297 296 294 292 291 290 290 289 288 288 288 288 288 288 288 288 288 288 288 288 288 288 288 288 287 287 287 287 287 286 286 286 287 286 286 287 287 287 289 290
327 329 329 326 323 326 327 327 329 329 327 323 321 324 327 325 324 322 316 315 315 313 311 310 310 309 308 307 307 306 305 305 305 304 302 302 302 302 301 300 300 300 300 300 301 301 301 301 301 301 300 299 299 299 299 298 297 296 295 293 291 290 290 289 289 288 287 287 287 287 287 287 287 287 287 287 287 287 287 287 287 287 287 286 286 286 286 286 286 286 286 286 286 286 286 288 290
327 326 326 326 325 326 326 326 329 327 325 326 324 323 326 326 324 319 316 317 317 314 312 310 310 309 307 307 307 306 304 304 303 303 302 302 302 301 300 299 299 299 299 300 300 300 300 300 300 300 299 299 298 298 298 297 297 295 293 291 291 290 290 289 289 288 288 287 287 287 286 286 287 287 287 287 287 287 287 287 287 287 286 286 286 286 285 285 285 285 285 285 285 285 285 286 288
325 325 325 325 325 324 324 325 326 325 325 327 325 324 326 328 326 320 318 320 319 316 313 310 310 309 307 307 307 305 304 304 303 302 301 301 300 299 298 298 298 298 299 299 299 299 299 299 299 299 298 298 297 297 297 296 295 293 292 291 290 290 290 290 289 289 289 288 288 287 286 286 286 286 286 286 286 286 286 286 286 286 286 286 286 286 286 285 285 285 285 285 285 285 285 285 285
324 325 325 324 324 324 324 324 324 325 326 326 325 324 324 327 327 322 321 321 319 319 317 312 310 309 308 307 306 305 304 304 303 301 300 299 298 298 298 297 297 297 298 298 298 298 298 298 298 298 297 296 296 295 295 294 293 292 291 290 290 290 290 290 290 289 289 288 288 287 286 286 286 286 286 286 286 286 286 286 286 286 285 285 285 285 285 285 285 285 285 285 285 285 285 284 284
324 325 325 325 325 323 323 323 323 325 327 326 325 324 323 326 326 321 321 321 318 320 319 313 311 310 307 307 305 304 303 303 302 301 299 297 297 297 297 296 296 296 297 297 297 297 297 297 297 296 295 295 295 294 294 293 292 291 291 291 291 291 291 290 290 290 289 288 288 287 287 286 286 286 286 286 286 286 286 286 285 285 285 285 285 285 285 285 285 285 285 285 284 284 284 284 284
324 326 326 329 328 325 326 327 325 326 326 322 322 324 324 324 323 320 320 319 318 320 318 313 311 310 307 306 304 303 303 302 301 300 298 296 296 296 296 296 296 296 296 297 296 296 296 296 296 296 294 294 294 294 293 292 292 292 292 291 291 291 291 291 290 290 289 289 288 287 287 287 286 286 286 286 285 286 286 285 285 285 285 285 285 285 285 285 285 284 284 284 284 284 284 284 284
322 325 326 329 329 328 330 329 328 329 325 318 318 324 326 326 324 321 320 317 316 318 317 314 312 309 307 306 304 303 302 302 301 300 299 297 296 296 295 295 295 296 296 296 296 296 295 295 295 295 294 294 293 293 293 292 292 292 292 292 291 291 291 290 290 290 289 289 288 287 287 287 287 286 286 286 286 286 286 285 285 285 285 284 284 284 284 284 284 284 284 284 284 284 284 284 283
320 322 324 327 328 330 332 330 329 331 325 316 317 324 329 328 324 318 314 312 312 314 315 314 311 309 307 305 304 303 302 301 301 300 298 297 296 296 295 295 295 295 296 296 296 295 295 294 294 294 293 293 293 292 292 292 292 292 291 291 291 291 290 290 290 289 289 288 288 287 287 287 287 287 286 286 286 286 286 285 285 285 285 284 284 284 284 284 284 284 284 284 284 283 283 283 283
320 321 324 325 326 327 329 326 322 324 323 319 319 325 325 321 317 312 309 310 310 311 312 311 310 308 306 305 303 303 302 301 301 300 299 297 296 296 295 295 295 295 295 295 295 295 295 294 294 293 293 292 292 292 292 291 291 291 291 290 290 290 289 289 289 288 288 288 288 287 287 287 287 287 286 286 286 286 286 286 285 285 285 285 284 284 284 284 284 284 284 284 283 283 283 283 283
322 323 324 324 324 324 326 325 320 320 325 323 321 323 320 316 316 312 310 312 310 310 311 310 308 307 305 304 303 302 302 301 301 300 298 297 296 296 295 295 295 295 295 295 295 295 294 294 293 293 292 292 292 291 291 291 291 290 290 290 290 289 289 289 288 288 288 288 288 287 287 287 287 287 286 286 286 286 286 286 286 285 285 285 285 284 284 284 284 283 283 283 283 283 283 283 282
323 324 324 322 324 322 322 325 324 324 327 325 322 322 320 320 321 314 311 314 312 309 310 310 308 307 305 304 303 302 302 301 300 300 298 296 296 295 295 295 295 294 294 295 295 294 294 293 293 292 292 292 291 291 291 291 290 290 290 290 289 289 289 288 288 288 288 288 287 287 287 287 287 287 287 287 287 286 286 286 286 286 285 285 284 284 284 283 283 283 283 283 282 282 282 282 282
320 321 321 322 326 325 322 325 327 327 328 325 323 323 320 320 321 317 313 314 312 309 310 310 308 307 305 305 303 303 302 301 301 300 298 296 295 295 295 295 294 294 294 294 294 294 293 293 293 292 292 291 291 291 290 290 290 290 290 289 289 289 289 288 288 288 288 287 287 287 287 287 287 287 287 287 287 287 286 286 286 286 285 285 284 284 283 283 283 283 282 282 282 282 282 282 282
317 317 319 321 323 325 324 323 325 327 327 326 326 326 325 322 320 318 316 313 311 309 309 309 308 307 306 305 304 303 302 301 300 300 299 296 295 295 295 294 294 294 294 294 294 294 293 293 292 292 291 291 291 291 290 290 290 290 289 289 289 288 288 288 288 288 287 287 287 287 287 287 287 287 287 287 286 286 286 286 286 286 285 284 284 283 283 282 282 282 282 282 282 282 282 282 281
317 318 320 321 320 321 324 323 322 324 325 326 326 326 328 323 316 316 315 312 311 310 309 309 308 307 306 306 304 303 302 301 300 300 299 296 295 295 295 294 294 294 293 294 294 293 293 292 292 292 291 291 291 290 290 290 290 290 289 289 289 288 288 288 288 287 287 287 287 287 287 287 287 287 286 286 286 286 286 285 285 285 284 284 283 283 282 282 282 282 281 281 281 281 281 281 281
319 318 319 320 320 321 324 324 322 321 323 325 325 325 328 322 315 315 316 314 312 310 310 309 308 307 307 306 305 303 303 302 301 300 298 296 295 294 294 294 293 293 293 293 293 293 293 292 292 291 291 291 291 290 290 290 290 289 289 289 289 288 288 288 287 287 287 287 287 287 286 287 287 286 286 286 286 285 285 285 285 284 284 283 282 282 282 281 281 281 281 281 281 281 281 280 280
Wind_Speed
8 9 11 9 8 9 6 2 1 2 2 3 4 3 3 2 1 3 5 4 4 4 4 5 5 3 1 1 2 8 10 8 5 3 3 4 7 7 5 8 8 9 13 11 11 18 16 15 14 12 12 11 11 10 9 8 7 7 7 7 7 9 9 9 9 9 9 9 9 9 8 9 9 9 9 9 10 11 11 12 13 13 13 15 15 14 15 15 15 16 16 17 16 14 11 8 7
10 8 9 9 7 4 2 1 1 2 4 4 4 3 2 2 2 6 8 6 5 3 3 4 3 3 1 2 1 6 9 11 9 6 5 9 11 11 6 8 9 9 11 10 9 16 16 14 14 12 12 11 11 10 10 8 7 8 8 7 7 8 9 9 9 9 9 8 8 8 8 8 8 9 8 8 8 10 10 11 12 12 13 13 13 12 13 13 14 16 16 17 18 17 13 9 6
10 8 7 9 6 3 2 0 1 2 4 4 3 1 1 4 6 7 7 7 5 3 1 1 2 3 3 1 3 6 7 10 9 6 6 8 5 10 6 7 10 10 10 10 8 14 15 12 13 12 11 11 11 10 10 8 8 8 8 7 7 9 8 8 9 8 8 8 8 8 7 7 8 8 8 7 7 8 9 10 10 11 13 12 11 11 11 11 13 16 17 18 19 19 16 11 7
10 7 6 8 2 2 2 1 2 2 3 4 3 2 4 6 7 7 6 6 4 3 1 0 2 2 3 6 5 6 5 5 11 8 5 6 5 6 7 10 11 9 11 11 9 12 12 11 13 11 11 11 11 10 10 9 9 9 8 7 7 8 8 8 8 8 7 7 7 7 7 7 7 7 7 6 5 7 7 8 9 10 12 12 11 10 10 10 13 17 18 20 21 20 17 13 9
11 8 5 5 1 1 1 2 2 4 4 2 4 4 7 7 7 7 5 6 4 4 3 2 1 0 5 7 4 3 3 0 11 14 5 6 7 7 9 10 9 7 12 11 9 11 10 10 12 12 11 10 11 11 10 9 9 8 8 7 7 7 8 9 7 8 7 7 7 7 7 6 6 6 6 5 4 6 7 8 9 11 12 12 11 10 10 10 13 17 19 21 21 20 17 13 10
12 9 6 4 1 1 0 3 2 6 3 2 5 4 7 7 7 8 6 6 4 4 2 3 2 3 6 5 5 5 5 2 5 11 7 6 7 10 9 8 7 8 12 10 9 11 11 9 10 12 11 10 11 11 10 9 8 8 7 7 6 6 8 9 8 8 7 7 7 7 6 6 5 5 5 5 4 5 7 8 9 10 12 11 11 10 10 12 15 19 20 21 21 19 16 13 11
9 6 2 3 1 1 1 2 4 5 4 5 6 6 7 6 4 6 6 4 4 4 1 2 3 4 4 3 5 7 10 9 5 6 7 6 7 11 10 7 8 10 11 10 9 9 10 9 9 11 11 10 11 10 10 9 8 8 7 6 6 6 8 9 8 7 7 8 8 7 6 6 5 5 4 4 3 4 6 8 8 10 10 10 10 10 10 14 17 19 20 20 20 19 15 12 11
5 3 1 1 1 1 3 1 6 4 3 6 6 6 7 4 0 3 5 2 2 3 3 3 4 2 3 4 5 6 12 14 10 7 7 7 7 9 12 11 9 11 11 9 8 8 8 9 8 10 12 11 10 10 10 9 8 8 7 6 6 5 7 9 8 7 8 8 7 6 5 5 5 5 4 4 3 4 6 8 9 9 8 9 9 9 11 15 17 19 19 19 20 18 14 12 12
5 2 1 1 2 1 1 3 5 3 5 6 6 5 6 4 2 2 4 4 3 3 5 4 4 1 5 9 7 5 10 11 11 11 10 9 7 6 11 13 11 11 10 6 6 6 6 7 7 10 13 11 10 10 10 9 9 7 6 6 5 5 6 8 9 8 8 8 7 5 5 4 4 4 3 4 3 5 8 8 9 8 7 8 8 9 11 14 16 18 18 19 19 17 14 12 12
3 3 1 1 2 2 2 3 5 4 5 5 5 5 5 3 1 2 2 5 2 2 6 5 5 2 5 9 5 5 9 9 11 12 11 10 8 5 8 13 12 10 10 8 5 5 5 5 6 11 14 11 10 10 10 9 8 7 6 6 5 4 5 7 8 9 8 7 7 5 5 4 4 3 3 4 4 6 9 8 8 7 7 6 7 10 11 14 16 17 18 18 19 17 13 12 12
1 2 1 1 3 2 1 4 5 4 6 5 5 5 3 2 1 1 2 5 2 3 5 3 3 4 1 5 3 6 11 13 13 12 9 8 8 6 6 10 11 10 10 11 8 3 3 2 5 13 15 12 10 9 10 9 8 7 6 6 6 4 5 6 7 8 7 7 6 5 4 3 3 3 3 4 4 6 8 8 8 7 6 5 7 9 10 12 14 15 17 18 19 17 12 11 12
1 1 1 1 3 1 2 3 6 5 5 5 5 3 1 1 1 0 2 3 3 5 6 4 2 3 2 4 3 8 14 16 12 9 8 6 7 7 5 6 8 9 12 13 10 5 1 1 4 15 15 12 11 9 9 8 7 7 7 7 6 5 4 5 6 7 7 6 6 4 3 1 2 3 3 4 4 6 7 7 7 5 3 4 6 7 9 11 13 14 16 17 18 16 12 10 11
1 3 2 2 3 2 3 2 6 5 4 3 5 3 1 2 0 4 3 1 2 5 6 4 2 3 2 4 4 6 13 14 10 7 7 6 6 7 4 3 4 7 11 11 9 7 5 3 1 12 15 12 12 10 9 8 7 7 7 7 7 6 5 5 6 6 6 5 5 4 3 1 1 1 3 4 4 5 7 7 6 5 2 3 5 7 10 11 12 13 15 16 17 16 12 9 10
1 2 1 2 1 2 2 2 5 4 3 3 5 4 2 1 3 5 4 2 5 5 3 2 3 2 2 4 3 4 8 12 10 6 6 6 6 6 4 5 4 5 10 10 7 7 8 5 2 6 11 12 12 11 10 9 8 8 7 8 8 8 7 6 6 6 5 6 5 5 4 2 0 1 2 3 3 4 6 6 6 5 3 3 5 8 11 12 12 13 15 16 16 15 12 9 9
2 2 1 1 0 1 2 2 3 3 3 4 2 4 4 3 3 2 4 4 5 3 3 2 3 2 2 2 2 3 7 11 9 5 5 6 6 7 8 8 8 7 7 8 8 6 7 9 6 3 6 8 10 11 10 10 10 10 9 9 9 9 8 8 8 7 6 6 5 5 5 4 3 1 1 3 4 4 4 5 5 5 3 3 5 8 11 11 11 13 15 16 16 16 13 10 9
2 2 1 1 1 1 1 0 1 1 3 3 2 2 4 4 1 1 2 2 1 2 2 3 4 3 4 4 3 3 7 9 8 5 4 5 6 8 9 8 9 10 8 6 5 4 4 7 8 6 5 5 7 9 8 9 10 10 11 10 9 9 10 10 9 9 8 7 6 6 5 5 4 3 3 3 4 5 4 4 4 4 2 2 4 7 9 9 10 14 15 16 16 16 15 13 10
1 1 0 3 2 3 1 0 2 2 4 3 4 1 2 4 2 2 1 2 2 3 6 5 6 6 5 5 4 5 7 10 10 8 6 5 6 9 10 7 10 11 9 8 5 3 3 2 5 7 7 6 7 8 8 9 9 9 10 11 11 9 10 10 10 9 9 8 8 8 7 6 5 4 5 5 5 6 5 5 5 4 2 1 3 4 6 7 10 13 14 15 15 16 16 15 12
1 1 1 3 1 2 2 3 3 4 5 4 3 2 2 3 3 2 0 2 5 3 8 6 8 9 8 8 7 8 10 12 13 12 12 11 9 10 11 8 10 10 7 8 6 3 3 2 2 4 6 8 7 8 9 9 8 7 8 10 11 11 11 10 9 9 9 9 9 8 8 6 5 6 6 6 7 7 7 6 6 6 3 2 1 2 4 6 8 10 11 12 13 14 15 14 12
1 2 1 2 3 2 3 5 4 2 5 5 4 3 3 1 2 1 1 3 5 2 6 7 7 8 8 9 9 10 12 13 14 14 15 14 13 12 12 10 10 9 6 7 7 4 2 3 3 4 5 8 8 7 8 7 7 6 6 9 10 11 11 9 8 9 8 9 8 7 7 6 6 8 7 7 7 6 7 8 8 6 3 1 1 1 3 5 6 8 9 10 11 12 12 12 12
0 1 2 2 3 4 4 6 5 5 4 3 4 3 2 1 2 0 2 3 2 1 4 5 7 6 6 7 9 10 11 13 14 14 15 14 13 12 11 11 10 9 7 6 4 5 3 1 4 6 5 7 9 8 7 6 5 5 4 6 8 9 10 9 8 8 8 8 7 7 6 5 7 9 7 6 7 6 7 9 8 6 4 2 0 0 2 4 5 7 8 9 9 9 9 9 10
1 1 1 2 1 3 4 5 6 5 5 3 4 2 2 2 2 1 2 4 0 3 4 4 6 5 5 6 7 10 11 12 13 13 14 13 13 11 10 9 8 7 7 6 4 5 5 3 2 6 7 7 9 9 7 6 5 5 4 5 7 7 8 9 8 8 8 8 8 8 7 7 7 7 7 6 7 6 7 9 8 8 6 4 2 2 3 4 5 6 6 6 6 7 7 8 8
1 1 4 4 2 2 5 6 6 4 3 2 1 0 1 2 1 2 2 3 1 3 3 4 5 5 5 5 7 9 10 10 11 12 12 12 12 11 10 9 9 8 8 8 7 7 6 4 3 3 8 8 8 9 7 5 6 5 5 5 5 6 7 7 8 8 7 6 7 8 8 8 6 5 5 6 7 6 7 9 9 9 7 5 4 4 4 4 6 5 3 3 5 7 7 7 8
1 1 4 4 3 2 4 5 3 1 0 2 2 1 1 1 3 3 3 0 3 4 4 5 5 5 6 6 7 8 7 8 9 10 10 11 11 11 11 10 10 10 9 10 9 8 7 3 7 5 5 11 8 7 6 5 6 6 4 5 4 4 6 6 6 5 5 4 6 7 6 4 4 5 6 5 6 7 6 7 7 8 8 6 5 5 5 5 6 3 1 3 6 8 8 9 9
2 1 4 4 3 2 4 5 3 1 2 2 1 2 1 3 4 1 3 5 6 5 5 6 6 6 7 7 7 7 7 8 9 9 9 9 10 10 10 10 10 10 10 11 10 9 8 5 10 8 3 11 9 7 6 5 6 5 6 7 7 6 6 8 7 7 7 5 5 6 5 4 3 4 5 5 5 5 7 9 9 9 8 6 5 6 6 6 4 2 4 5 6 7 8 8 8
3 1 2 3 1 1 4 6 5 4 4 3 1 1 5 6 2 1 5 7 6 6 6 6 6 6 7 6 6 6 7 8 8 8 9 9 9 10 11 10 10 11 11 11 11 10 8 7 8 6 3 7 7 8 7 6 7 8 9 8 8 9 10 11 11 10 9 5 4 4 3 4 4 3 3 5 4 5 8 9 8 8 6 3 4 5 3 4 5 4 4 4 4 4 4 5 5
1 3 3 1 1 3 5 6 6 6 5 4 4 5 8 4 3 2 5 8 6 6 5 5 5 5 5 5 5 6 6 7 8 8 8 9 9 11 12 11 11 12 11 10 11 10 8 8 7 7 5 4 6 10 9 9 10 10 10 9 9 10 11 12 11 10 10 7 5 5 4 1 2 2 2 5 4 4 5 4 4 5 6 7 8 7 6 6 6 5 4 4 3 2 4 4 3
2 4 4 4 4 4 4 5 6 6 5 6 6 6 5 3 3 2 4 8 7 7 6 4 5 5 5 5 5 6 7 7 8 8 8 9 11 12 12 12 11 11 11 11 12 11 9 8 7 7 6 4 7 11 11 10 11 10 10 10 9 11 11 11 11 11 10 7 6 6 7 7 4 2 2 4 2 2 2 3 5 7 9 10 10 10 9 8 7 4 2 4 3 2 6 6 4
2 4 5 6 7 7 6 7 6 5 3 5 6 6 2 5 1 3 7 8 7 7 6 5 5 5 5 5 5 5 7 7 8 10 10 11 11 11 11 11 10 9 11 11 12 11 8 8 8 8 7 7 9 12 13 13 14 14 13 12 12 13 11 9 10 10 8 8 8 8 9 9 8 5 2 2 2 3 4 6 8 9 10 10 10 9 7 6 4 1 1 3 4 5 6 7 7
2 2 4 6 6 7 9 9 6 5 2 3 4 3 5 6 3 4 9 7 7 7 6 6 5 5 5 5 5 4 6 7 9 10 9 8 8 8 9 9 9 9 10 10 11 11 9 8 10 9 8 9 12 14 16 16 18 18 17 17 16 15 12 11 11 11 9 9 10 10 9 9 9 9 8 7 6 7 7 7 9 9 10 10 9 8 5 4 3 3 4 4 5 5 5 6 7
2 3 3 4 5 6 8 8 6 5 3 4 5 1 5 7 5 6 8 7 7 6 6 6 5 5 5 4 5 4 5 7 8 8 6 6 6 7 7 7 8 8 9 11 11 12 11 10 10 10 11 12 14 15 17 19 20 18 18 18 18 17 16 15 14 13 12 11 11 11 11 10 11 12 12 11 10 11 11 10 11 11 11 10 9 8 6 6 5 6 6 5 5 5 5 5 6
2 4 2 2 3 3 1 5 8 5 2 4 5 2 4 5 7 6 6 7 7 6 6 6 5 5 4 5 5 5 5 7 8 7 6 6 5 6 6 7 7 7 10 11 12 12 12 12 12 14 14 15 16 18 18 19 20 18 17 18 18 19 18 18 17 16 15 14 12 12 12 12 12 13 14 14 14 14 14 14 13 12 11 10 10 9 7 7 7 6 6 5 7 6 5 5 6
3 2 3 3 3 2 0 5 8 5 1 4 5 2 2 5 6 6 6 6 7 6 7 6 5 6 5 5 5 5 5 7 9 8 7 6 7 6 5 6 6 8 11 11 12 13 13 14 15 16 18 19 20 21 20 22 22 20 19 20 20 20 21 21 21 19 19 17 16 16 14 13 13 14 15 15 16 16 16 16 16 14 12 11 11 10 9 10 11 10 8 7 9 9 7 7 7
3 4 3 3 3 4 2 3 6 4 3 5 5 3 1 4 6 7 6 7 7 6 7 7 6 6 6 5 5 5 5 6 8 8 7 6 7 6 4 5 6 8 11 11 12 14 14 15 17 18 19 21 22 23 23 25 25 23 24 24 24 25 25 26 25 24 24 23 22 22 20 18 17 17 18 18 19 20 20 19 18 17 16 15 15 15 14 14 14 13 12 11 12 12 12 12 11
3 4 4 5 5 5 2 1 3 4 4 5 7 6 4 3 8 7 7 8 8 7 7 8 6 5 5 5 5 5 5 5 6 7 6 6 7 6 4 4 5 8 10 12 13 16 17 17 19 21 21 22 23 24 25 27 28 28 28 28 28 29 28 28 27 27 27 26 26 26 26 25 24 23 22 22 23 23 22 21 20 18 17 17 17 17 17 17 16 15 15 14 15 15 15 16 13
4 4 3 4 4 6 4 1 3 6 5 5 6 7 7 5 8 7 8 9 9 8 7 7 7 6 5 5 5 5 5 5 6 7 6 5 6 6 4 4 7 9 10 12 14 17 19 19 20 22 22 22 24 25 27 28 29 30 30 30 30 30 29 28 27 26 26 25 25 24 25 26 25 24 23 23 23 23 23 22 20 19 18 17 17 17 17 17 17 17 16 14 17 20 21 19 13
6 4 1 3 3 4 2 3 4 5 4 5 6 7 7 5 8 8 8 8 8 7 6 7 6 6 5 5 5 5 5 5 7 7 5 5 5 5 6 6 9 10 9 12 15 17 19 19 19 20 19 20 22 25 26 28 29 30 30 29 30 29 28 27 26 25 25 24 23 22 22 23 23 23 22 22 22 23 23 22 21 20 18 18 18 19 18 17 16 17 17 16 19 24 27 24 16
8 4 2 5 3 5 3 3 4 2 2 6 6 6 8 6 7 9 8 7 7 7 6 7 6 6 6 6 6 5 5 6 8 7 6 6 5 6 7 8 8 8 9 11 14 16 17 17 17 16 15 15 19 21 22 23 24 26 27 28 28 27 26 27 26 25 24 24 23 22 22 22 21 22 22 22 22 23 23 23 24 23 22 22 23 22 20 18 17 16 16 16 19 24 29 30 23
8 4 4 5 3 6 5 2 4 3 2 4 6 7 9 9 7 8 9 8 9 9 8 8 8 7 6 6 7 6 5 6 7 8 7 6 6 6 8 8 7 8 9 11 12 14 15 15 15 15 14 15 17 18 19 20 21 23 25 26 26 26 25 25 26 25 25 25 24 24 24 23 23 23 23 23 24 25 26 27 28 27 27 26 26 25 23 21 19 17 17 17 18 22 27 30 29
6 3 2 4 3 5 3 3 3 3 1 3 5 7 8 9 8 8 11 10 9 9 9 9 9 8 7 7 7 6 6 6 6 7 8 8 7 7 7 7 8 9 10 11 12 12 13 13 14 15 15 16 17 18 20 21 22 23 24 25 25 26 27 27 27 27 26 26 27 26 26 26 26 26 26 26 27 27 28 29 29 28 28 28 27 27 27 25 23 21 20 20 19 20 23 27 29
4 3 2 4 3 4 3 1 2 3 2 3 4 6 6 7 6 6 10 9 5 3 4 4 5 7 7 7 7 7 7 7 6 6 8 10 9 8 8 8 9 10 10 11 11 12 12 12 13 15 16 18 19 19 21 23 23 23 25 27 27 28 29 28 29 29 28 29 30 29 29 29 29 29 28 28 28 28 28 28 27 27 28 27 27 28 28 27 26 24 22 22 22 22 22 24 26
4 5 6 5 4 6 5 2 2 2 3 4 3 6 6 8 9 7 6 4 3 3 4 3 2 4 6 6 6 7 7 7 7 7 8 10 11 9 9 9 9 10 11 11 11 12 14 14 15 17 18 19 20 21 23 24 26 28 29 29 28 29 28 28 30 30 30 31 31 31 30 30 30 30 29 29 28 28 28 28 27 27 27 27 27 27 27 26 26 25 24 22 23 23 21 22 22
5 7 9 8 7 7 6 1 2 1 3 3 3 3 4 5 10 9 5 3 3 4 5 5 4 4 5 6 6 6 6 7 7 8 9 11 12 11 10 10 10 12 12 12 13 14 15 17 19 20 21 21 22 23 24 25 26 26 26 26 26 27 27 26 27 28 29 30 30 30 30 29 29 29 29 28 28 27 27 27 26 26 26 26 26 26 26 25 25 24 24 23 22 20 20 22 22
5 4 4 7 8 6 5 4 1 1 3 2 4 3 4 4 5 6 8 7 7 6 5 7 7 6 6 6 6 6 6 6 7 8 9 12 13 13 12 11 12 12 12 12 14 15 17 18 20 23 23 23 22 21 20 20 21 21 22 25 26 27 28 25 25 27 28 29 29 29 29 28 28 28 28 27 26 26 26 25 25 25 25 25 24 25 25 24 24 22 22 22 21 20 20 20 20
4 3 2 3 4 4 4 4 4 3 2 2 3 3 4 6 5 5 8 7 6 7 8 8 8 9 8 7 8 8 7 7 7 7 8 11 14 14 13 13 13 13 13 13 15 16 17 19 20 22 23 22 19 17 16 17 19 22 25 27 27 27 28 27 25 26 27 28 29 28 28 28 27 27 26 26 25 25 24 24 24 24 23 23 23 24 23 22 22 21 20 21 21 21 20 18 17
2 1 2 4 3 1 2 4 4 3 3 3 4 3 3 7 4 6 7 6 7 10 11 11 10 10 10 9 9 9 9 8 8 7 9 12 15 16 15 14 14 14 14 15 16 17 18 19 21 22 21 20 17 16 16 17 21 26 28 29 29 27 28 27 25 25 25 26 27 26 26 26 25 25 25 24 24 23 23 22 22 22 22 22 21 22 22 21 21 21 20 20 19 20 20 18 16
3 3 5 5 3 2 0 2 2 2 5 5 5 6 4 7 3 6 4 5 8 10 10 11 11 10 10 10 10 10 9 8 8 8 11 13 15 16 16 15 15 15 15 16 17 18 18 19 20 21 20 18 17 17 19 22 25 28 30 31 31 29 27 26 25 24 23 23 24 24 24 24 23 23 23 22 22 21 21 20 20 20 20 20 19 19 20 20 20 19 20 19 18 18 19 18 17
6 4 5 4 1 3 2 1 1 2 7 6 7 9 6 5 3 7 6 7 9 8 7 9 10 11 11 10 10 10 9 8 8 9 12 15 15 16 16 15 16 16 16 16 17 18 19 20 20 20 19 19 20 21 24 26 27 29 30 30 30 29 27 26 25 23 22 22 23 22 23 23 22 21 21 21 20 19 19 19 19 19 18 18 18 18 18 18 18 18 17 17 17 17 17 17 16
5 4 4 2 0 2 2 2 2 4 7 5 9 11 10 8 5 5 7 8 10 9 9 12 13 13 12 10 10 10 9 8 8 8 10 14 15 15 16 16 16 16 16 17 18 18 19 19 21 21 20 21 22 24 26 27 28 28 28 28 28 27 26 26 25 23 22 22 22 21 21 21 21 20 19 20 19 18 18 18 17 17 17 17 17 17 17 16 16 16 16 16 16 16 15 15 15
3 5 5 3 1 0 1 2 3 6 6 3 6 8 9 9 7 7 6 2 2 3 8 13 15 14 12 11 10 9 8 8 8 8 8 10 12 14 16 17 17 17 17 18 18 18 19 20 21 22 22 23 24 25 27 27 27 27 27 26 26 26 25 25 25 24 22 21 21 21 21 20 20 19 19 19 18 16 16 16 15 16 16 16 15 15 15 14 14 15 15 15 16 15 15 15 15
6 6 5 5 4 3 4 4 3 5 5 3 1 2 3 4 5 9 6 1 4 4 3 9 12 12 11 11 10 9 9 8 7 8 7 8 12 14 16 17 18 18 18 19 19 19 19 20 22 23 23 24 25 26 27 27 27 26 26 26 26 26 26 25 24 24 23 22 21 21 20 19 19 18 18 17 16 15 15 15 14 14 14 14 13 13 13 13 13 13 14 14 15 15 14 14 14
8 6 5 6 5 3 4 4 4 3 1 3 1 2 3 2 2 4 0 3 4 6 5 8 9 9 9 9 9 9 9 8 7 7 7 9 14 16 16 18 18 19 19 19 19 20 20 21 22 24 25 25 26 27 27 27 26 25 25 26 26 26 26 25 24 24 23 23 22 21 20 19 18 18 17 16 15 14 14 14 13 13 13 12 12 12 12 11 11 12 12 13 13 13 13 13 12
5 4 5 6 4 2 2 2 2 1 1 2 2 3 4 3 1 1 3 5 5 4 7 11 9 9 9 8 9 9 9 9 8 8 8 11 16 17 17 18 18 19 20 20 20 21 22 23 24 26 26 26 27 27 27 27 26 26 25 26 26 26 26 26 25 24 23 22 21 21 20 18 18 17 16 15 14 13 13 12 12 11 11 10 10 10 10 10 10 11 11 11 12 12 12 12 11
3 4 6 5 2 1 3 2 1 1 4 4 4 4 4 1 1 2 5 4 3 1 5 10 9 9 10 8 9 9 9 9 8 8 8 12 16 17 18 19 19 20 21 21 21 22 23 25 26 27 27 27 27 27 27 27 27 26 26 25 26 26 26 26 25 24 23 21 20 19 19 18 17 16 15 14 13 12 11 10 9 9 9 9 9 9 9 9 9 9 9 10 11 11 11 11 10
4 4 5 3 3 1 1 2 1 2 7 4 5 6 4 3 4 2 5 4 3 4 5 8 8 9 9 8 8 9 9 8 8 8 9 13 16 18 19 19 20 21 21 21 22 22 24 26 28 29 28 28 27 27 27 27 27 27 26 26 26 25 25 25 24 23 22 21 20 19 18 17 16 15 14 13 12 10 10 9 8 8 7 7 7 7 7 7 7 7 7 8 8 8 9 10 9
3 2 2 3 1 2 3 2 3 4 6 5 4 6 6 7 6 4 7 9 9 7 6 8 10 11 10 9 9 9 9 9 8 8 8 11 16 19 20 20 20 21 22 22 22 23 25 27 28 29 29 29 28 27 27 27 27 28 27 26 26 25 25 24 23 22 21 20 20 18 17 16 15 14 13 12 11 10 9 8 7 6 6 6 5 5 5 5 5 5 6 6 7 7 8 9 9
2 3 3 1 1 3 4 3 2 3 5 5 3 2 4 7 7 10 13 13 13 12 10 10 12 13 11 10 11 11 11 10 10 10 9 11 17 20 21 22 22 22 23 23 24 25 26 27 27 28 28 28 28 28 29 28 28 28 27 27 26 25 24 23 22 21 20 20 19 17 16 16 15 14 12 11 10 9 8 7 6 5 4 4 3 3 3 3 4 4 4 5 6 7 8 9 10
4 2 3 3 2 1 0 2 2 3 3 4 4 5 5 3 3 10 15 14 14 16 14 12 11 12 11 10 11 11 11 11 11 10 10 12 18 21 22 22 22 23 24 24 25 26 27 27 28 29 29 29 29 29 29 29 28 28 28 27 26 25 24 23 22 21 20 19 18 17 16 15 14 13 11 10 10 9 8 6 6 5 4 3 3 3 3 3 3 4 4 5 6 8 9 9 10
8 7 7 8 6 3 2 4 4 4 3 3 3 6 6 3 3 3 8 10 13 16 15 12 11 12 11 10 12 12 11 12 12 11 10 13 19 21 23 23 23 24 25 26 26 27 27 27 28 29 30 30 30 30 30 29 29 28 28 27 27 26 24 23 22 21 20 19 18 17 16 14 13 13 11 10 9 8 8 7 6 5 4 3 3 3 3 3 3 4 4 5 7 8 9 10 11
Wind_Direction
349 341 326 322 316 316 307 258 303 248 164 71 81 98 60 64 131 81 75 81 75 49 25 35 30 353 0 298 20 59 47 38 46 44 96 126 92 76 74 84 110 136 147 155 165 172 168 162 160 157 155 152 154 149 146 137 122 114 100 93 98 110 111 111 107 101 99 98 95 93 95 94 89 89 90 90 92 90 87 83 82 83 83 83 82 83 78 68 57 45 40 37 33 28 22 18 21
349 338 322 312 296 310 317 133 309 243 113 74 66 84 138 112 58 54 54 57 64 54 36 35 30 339 297 206 237 74 49 38 66 87 99 128 94 43 53 94 110 134 149 154 162 171 170 167 162 161 160 156 157 153 148 141 129 120 106 97 99 113 113 112 108 103 105 101 99 99 96 95 94 90 89 90 92 93 92 89 88 88 87 85 81 81 75 63 47 36 32 29 27 24 19 11 2
347 346 341 320 274 213 284 130 253 260 104 97 82 102 172 83 63 60 56 57 56 50 64 106 94 323 306 100 60 79 59 37 53 88 97 109 75 10 29 105 114 128 149 151 155 169 174 173 168 164 163 161 159 157 150 144 137 125 112 102 109 119 117 117 114 109 106 103 103 103 98 95 99 95 92 91 93 96 96 95 94 91 88 83 77 71 64 53 36 29 27 23 21 19 15 11 0
348 356 337 323 279 190 279 207 237 324 72 108 97 77 78 79 79 71 66 67 44 18 355 58 96 322 22 40 34 71 54 42 45 45 93 59 18 13 56 101 108 122 150 149 143 162 176 178 175 169 166 167 162 160 154 148 141 130 116 106 119 124 122 126 120 116 110 106 110 107 100 95 104 104 98 97 97 100 99 97 96 90 83 75 67 61 56 46 28 24 24 21 18 15 13 12 6
341 342 301 305 339 254 315 268 274 55 32 90 109 86 85 88 92 89 82 83 57 26 5 357 57 84 65 37 9 56 339 342 54 38 58 27 31 76 68 84 97 123 149 147 144 158 177 181 179 177 171 171 167 164 159 154 146 134 117 108 122 132 130 132 130 125 117 113 115 113 105 100 106 106 106 104 96 98 101 98 95 92 84 72 62 58 54 41 24 22 22 19 17 14 13 14 16
327 319 279 267 265 19 23 287 37 85 359 15 113 94 86 89 95 105 105 100 85 59 13 338 27 77 83 58 52 65 353 342 58 32 29 14 52 93 70 66 98 135 144 144 156 164 178 182 182 185 178 173 171 169 165 160 154 135 118 111 115 137 139 135 138 134 124 122 121 120 115 110 106 104 115 115 103 96 100 100 95 91 86 75 67 65 53 39 27 22 19 18 17 15 15 20 26
320 315 259 253 259 76 267 279 66 83 0 22 98 100 89 92 118 131 120 116 109 89 57 14 12 63 117 132 80 63 43 54 73 36 20 27 72 92 82 78 107 132 138 145 160 163 174 177 181 190 186 179 175 174 172 165 160 142 128 121 108 131 145 139 140 138 132 133 132 131 128 126 121 114 122 130 128 105 101 104 96 90 86 76 72 69 48 35 26 21 18 16 16 15 18 26 32
294 306 109 308 282 191 275 36 65 75 60 44 66 86 96 97 147 128 106 95 107 102 89 73 12 23 138 118 95 72 64 69 74 61 34 49 84 93 95 98 110 125 138 156 161 150 159 170 177 197 194 185 181 178 175 172 167 149 137 132 115 130 151 145 140 138 136 141 144 140 136 132 133 130 131 142 149 121 111 113 104 96 89 76 70 59 37 27 23 21 18 16 17 17 21 30 34
246 229 43 318 274 218 284 91 87 89 99 84 80 83 94 92 348 26 103 111 92 80 68 25 345 14 114 94 98 87 70 71 65 57 41 46 79 103 106 106 112 124 133 144 173 168 160 172 180 200 199 190 187 183 179 177 171 155 145 140 123 130 155 154 146 143 144 151 153 144 138 127 133 138 139 146 143 124 122 120 110 103 93 80 64 43 27 21 21 20 17 16 17 17 23 33 35
246 197 5 318 290 223 221 116 106 100 94 91 106 108 107 111 42 2 72 106 83 74 68 353 328 13 111 102 100 81 65 62 52 48 43 33 53 99 118 114 113 123 134 124 145 180 167 182 197 197 196 191 190 186 185 181 174 165 151 143 130 133 160 163 153 150 155 162 160 155 150 132 132 134 135 142 129 128 130 125 113 104 97 81 54 35 25 22 21 18 15 15 15 15 22 33 36
281 191 94 338 281 222 208 106 108 110 106 95 96 101 101 85 64 348 74 103 111 115 77 348 350 0 46 101 94 94 65 48 41 37 50 33 32 75 109 120 120 127 148 137 117 125 162 195 210 198 194 189 190 186 187 186 181 174 161 148 136 142 162 166 161 158 166 175 172 170 164 139 129 126 127 136 131 136 138 133 120 106 99 73 43 28 22 21 16 12 13 15 14 13 19 30 37
336 284 68 272 280 22 25 90 110 103 121 130 116 97 69 103 219 231 94 105 126 110 68 10 17 337 326 106 130 100 54 33 29 26 58 57 39 62 86 121 132 137 153 151 132 111 111 348 203 196 192 184 189 190 190 191 187 183 172 157 146 154 159 163 168 166 175 186 184 183 176 128 114 128 130 134 144 149 145 141 129 118 104 58 35 23 18 16 9 8 13 15 14 13 18 29 37
0 336 16 278 292 35 14 59 100 109 146 140 115 111 274 177 100 20 23 29 87 89 62 7 344 329 4 106 134 91 44 19 13 20 57 73 70 75 78 98 135 148 147 149 147 141 133 48 208 196 194 190 192 193 191 194 195 195 187 170 161 163 160 162 171 173 183 197 198 202 200 156 83 121 134 136 148 155 153 146 135 136 126 53 38 29 22 16 9 12 15 16 14 13 17 28 37
337 5 0 282 313 28 33 76 117 145 148 95 103 137 180 32 43 20 345 6 64 71 88 357 358 16 30 104 116 54 22 3 2 24 61 79 91 93 78 59 71 127 135 133 137 148 147 129 123 203 204 206 208 208 204 207 207 204 202 188 176 170 167 166 170 173 184 201 210 216 219 229 229 110 141 153 157 162 164 156 145 142 128 58 39 33 23 17 15 21 23 19 16 14 17 29 37
351 356 288 285 320 40 48 77 140 168 136 107 110 148 133 60 47 36 6 37 68 83 125 59 16 15 14 69 92 10 356 356 5 31 64 88 92 81 76 65 58 71 111 126 129 141 156 150 142 178 209 219 222 225 224 227 226 216 209 197 187 180 177 172 170 172 178 196 210 220 226 233 233 211 186 176 173 175 172 170 162 152 127 51 36 29 21 20 27 33 31 26 24 22 21 28 36
0 342 328 287 203 134 180 48 61 94 112 114 121 162 140 107 73 56 37 37 98 121 92 53 38 29 37 59 71 12 1 9 25 45 69 99 107 93 86 80 67 63 73 87 108 127 151 158 157 167 185 213 224 229 235 236 237 228 215 203 199 192 186 183 175 174 178 188 199 212 221 227 233 232 228 205 187 187 184 189 178 164 148 28 14 18 23 32 42 42 38 34 33 33 31 30 31
352 356 160 261 201 122 242 118 96 118 115 126 143 180 163 138 125 82 47 313 245 114 82 64 59 56 64 81 66 39 31 34 43 58 64 69 110 109 90 83 78 72 72 72 69 75 77 132 165 168 174 196 211 218 227 232 238 240 227 212 208 202 197 197 189 184 184 187 193 201 210 216 226 225 220 211 196 196 197 192 182 181 198 307 347 20 41 51 51 47 45 39 35 35 36 34 33
345 282 217 278 32 84 331 44 97 148 134 130 128 17 347 141 131 110 68 255 235 141 99 87 72 80 92 87 65 53 48 46 49 56 55 46 58 75 68 62 66 65 67 65 53 71 92 76 159 176 185 196 197 207 216 226 237 244 240 225 215 208 207 209 203 198 194 195 196 199 206 209 218 216 208 205 200 199 201 191 185 193 206 265 331 40 60 60 53 50 46 40 36 34 33 33 35
262 298 304 349 43 59 0 53 63 80 111 120 109 43 351 69 90 118 236 213 221 173 117 117 97 99 96 77 58 56 52 50 51 53 53 45 44 48 48 47 45 43 43 44 33 34 113 133 163 175 193 201 190 196 209 224 242 240 235 229 219 214 215 215 210 206 206 207 206 209 207 198 215 220 212 207 200 193 199 192 185 192 197 220 346 50 72 67 59 56 47 36 37 37 34 31 33
136 354 358 49 73 78 37 61 65 29 64 117 110 70 333 79 66 160 296 295 258 91 98 120 114 105 88 72 55 55 54 53 51 51 54 46 45 43 38 40 33 26 27 26 19 9 348 236 191 173 168 198 196 188 199 213 240 245 234 226 220 218 217 214 215 213 213 215 215 219 204 193 221 225 214 203 197 195 199 194 189 198 206 205 314 54 117 84 68 61 49 34 32 36 39 34 31
353 27 85 78 27 86 66 66 71 41 25 27 81 57 283 105 64 324 311 306 305 82 52 65 92 86 75 75 61 57 54 53 49 47 51 46 44 42 36 38 30 22 22 8 355 3 352 335 248 198 165 178 199 183 180 200 216 227 228 230 225 216 210 211 213 208 211 216 213 214 204 201 216 217 212 203 204 210 198 195 199 209 218 222 224 180 142 101 78 72 60 45 34 34 38 34 29
315 71 95 82 352 67 93 74 66 55 33 11 81 320 304 81 0 247 247 271 144 92 61 66 75 78 75 74 70 65 58 53 49 45 48 46 42 37 32 31 26 21 20 11 3 7 354 359 9 239 177 160 185 176 169 197 198 196 206 215 218 210 205 205 210 205 204 211 210 214 212 206 201 190 200 197 196 205 198 197 203 214 220 212 206 186 152 116 103 112 95 50 27 28 30 28 25
323 76 89 69 25 66 110 97 75 47 58 231 233 331 52 9 282 222 199 179 107 97 83 87 84 91 90 80 74 67 61 58 55 51 49 47 42 36 29 25 23 19 16 14 8 4 351 27 49 1 194 159 165 175 169 187 183 179 191 187 181 194 201 199 204 196 171 171 192 212 217 214 215 200 198 197 195 204 208 201 199 209 209 199 195 192 182 153 143 156 75 22 15 20 19 19 20
259 254 111 78 25 36 104 116 131 206 238 233 79 26 272 254 275 221 139 107 109 110 96 100 99 98 93 81 76 74 68 61 61 62 58 53 46 39 34 29 24 19 18 15 8 2 2 48 55 17 205 157 156 181 168 166 175 173 177 170 151 142 156 162 151 134 131 150 171 195 210 212 235 225 206 208 209 212 213 203 200 200 201 208 195 180 187 172 149 80 48 48 36 28 15 13 15
230 301 87 91 16 180 122 133 169 195 223 243 171 217 252 238 216 122 131 120 118 119 110 111 113 101 90 79 77 80 74 63 58 63 65 56 48 43 39 33 27 23 21 15 12 12 18 44 51 41 138 147 149 177 173 167 177 175 168 154 142 131 123 129 127 115 110 114 114 129 188 205 220 243 224 220 218 200 195 191 191 191 186 180 152 139 134 125 110 97 92 79 60 37 8 16 8
273 12 10 355 234 203 158 165 196 199 203 205 200 233 247 219 113 101 128 123 123 125 123 127 124 108 94 87 76 76 75 64 52 54 63 57 46 42 38 33 29 24 22 22 23 26 37 45 50 75 110 152 163 174 176 165 166 168 158 139 132 129 115 116 118 106 98 94 82 81 74 75 201 219 236 232 223 172 177 171 153 163 151 122 116 119 119 127 139 156 143 90 72 11 5 33 23
333 7 331 295 275 257 185 197 222 205 193 177 190 246 242 134 121 213 133 127 138 134 134 141 130 112 102 96 78 70 68 59 48 47 49 46 40 35 32 31 31 26 26 30 29 33 46 48 47 74 100 150 160 159 156 143 141 139 136 132 125 122 115 109 107 99 95 94 83 82 78 68 84 155 215 232 222 136 130 129 135 146 141 133 139 146 152 159 164 177 149 120 115 34 15 19 17
353 3 309 274 254 248 213 219 229 198 194 177 191 253 218 118 202 205 135 140 154 142 140 146 133 112 106 102 89 72 66 58 49 46 41 36 32 31 29 25 29 29 28 31 32 42 58 53 55 78 99 121 131 135 133 125 120 116 119 125 122 119 119 115 109 101 95 93 90 86 83 78 79 89 110 141 146 126 119 132 140 142 141 140 142 142 150 160 164 167 94 109 93 58 22 0 359
342 335 284 283 265 247 222 211 198 176 187 172 167 261 229 186 192 131 128 149 158 146 143 142 135 119 118 111 97 81 75 70 60 53 47 43 35 34 31 22 30 33 31 41 46 55 72 68 69 90 108 122 128 126 126 123 118 116 116 117 116 119 123 122 113 105 101 101 97 90 86 84 83 82 84 95 108 115 120 128 131 131 132 133 125 117 124 132 126 99 74 44 44 48 20 355 353
296 253 235 289 295 262 220 185 150 149 163 167 148 280 244 186 147 123 133 156 156 152 151 148 143 132 134 127 113 99 87 84 79 72 65 58 48 43 34 24 36 43 40 53 62 65 79 84 89 104 110 121 128 125 126 124 118 119 117 114 112 115 120 119 113 109 108 107 103 99 95 95 96 94 91 93 101 108 113 118 119 120 123 131 132 127 126 118 119 109 88 50 28 29 25 20 13
268 274 224 221 275 288 223 138 144 153 178 180 160 262 264 145 136 147 152 160 162 164 160 155 151 142 141 137 131 121 104 97 93 88 79 71 60 50 41 31 38 56 57 60 68 72 84 94 101 111 115 121 125 124 129 125 120 123 121 117 115 113 114 111 109 108 106 104 104 105 102 103 105 104 101 101 104 104 106 105 103 107 115 129 132 126 121 105 99 93 86 71 48 42 42 37 27
209 245 264 223 200 237 164 139 166 165 234 204 175 247 248 143 152 159 158 169 176 175 161 156 158 152 151 150 143 130 121 113 101 87 79 74 63 53 45 42 48 65 69 69 76 80 88 98 103 111 117 120 119 119 125 121 119 124 121 117 114 110 108 103 100 98 96 95 95 96 97 103 105 105 105 104 104 99 96 92 86 87 92 100 103 101 100 82 69 63 61 60 52 41 28 18 6
204 189 250 254 216 219 167 166 199 155 130 196 201 246 293 139 159 160 169 179 186 191 165 160 166 159 156 155 146 135 135 128 105 84 74 70 63 55 51 58 65 78 81 80 85 89 94 103 108 110 113 116 115 116 119 115 115 119 116 113 111 107 103 99 97 95 92 90 89 88 87 88 90 92 95 96 95 90 86 83 80 81 81 83 85 83 81 72 64 60 52 45 40 32 23 13 1
220 188 217 246 240 236 194 180 229 172 165 211 207 236 269 157 160 169 183 183 185 199 177 163 164 162 157 148 150 151 145 131 105 88 78 74 68 60 56 69 84 92 94 90 91 95 95 100 106 107 109 110 111 113 114 111 113 115 111 109 107 103 100 97 97 95 91 90 90 90 89 88 85 84 86 87 88 85 82 80 77 79 79 79 81 80 77 72 67 61 52 42 34 34 30 15 4
232 215 209 251 252 242 237 183 182 178 198 236 205 225 246 181 163 176 189 186 189 199 183 162 161 162 158 153 160 151 135 118 102 98 90 86 84 73 66 85 98 96 98 99 100 99 95 96 100 100 101 103 107 109 109 108 109 109 106 104 102 99 97 96 95 92 90 90 91 92 93 93 91 88 85 84 84 82 79 77 75 76 76 76 76 75 74 72 70 63 58 49 41 45 39 26 18
270 287 300 288 288 266 260 116 163 176 188 233 223 234 250 202 172 180 190 189 197 203 173 154 162 161 160 164 160 146 134 116 107 109 102 97 98 93 89 91 93 90 96 106 107 102 97 98 97 94 94 97 103 106 106 105 104 103 101 99 96 92 92 93 92 91 89 89 90 92 93 93 94 93 90 87 85 84 80 76 75 74 73 74 70 68 67 68 71 68 59 48 43 45 40 36 37
278 303 309 282 289 282 277 125 160 153 156 226 236 249 261 247 195 181 182 185 202 207 172 161 170 163 167 166 155 147 132 115 117 120 115 111 109 108 104 95 90 89 99 111 112 107 102 101 98 96 100 102 104 105 105 105 102 101 98 94 92 89 89 91 90 90 90 90 91 92 91 91 94 93 92 91 88 86 84 80 78 76 74 74 72 70 70 72 76 77 69 51 41 41 38 35 37
264 268 279 279 270 269 274 137 152 107 94 240 258 267 263 263 235 178 167 181 203 204 180 177 178 166 168 162 154 145 119 121 136 133 128 124 116 117 114 104 104 101 106 114 112 111 109 105 103 106 112 115 112 111 112 109 106 106 103 99 97 94 92 94 92 91 93 93 92 92 90 91 92 91 91 91 90 88 86 84 80 78 77 77 76 75 75 77 77 79 76 61 49 45 41 35 36
250 252 271 273 261 272 287 112 149 123 110 249 266 273 263 266 253 177 171 190 201 202 186 179 175 167 167 161 156 146 132 142 151 141 139 137 127 126 123 118 118 111 112 115 110 112 112 108 113 118 121 122 120 119 118 114 110 110 109 107 106 101 96 97 98 96 97 96 93 92 92 92 92 91 92 92 91 90 88 86 82 80 78 76 77 75 74 74 72 73 71 65 59 56 49 39 40
238 235 241 250 245 257 263 159 194 181 209 264 293 286 265 268 269 188 186 192 172 159 147 136 150 157 162 161 156 152 150 154 154 149 147 146 143 139 133 127 125 120 119 117 113 113 112 112 122 126 127 126 124 121 119 117 115 113 111 108 107 103 100 101 101 98 98 97 95 94 94 94 94 93 93 92 91 90 89 87 84 82 79 75 74 72 70 69 68 67 65 64 60 56 53 45 44
234 222 222 239 231 232 239 200 169 201 237 246 284 295 264 235 236 215 188 159 112 111 112 92 89 122 125 131 145 153 155 155 154 153 151 153 151 144 138 135 132 132 128 121 119 118 115 118 122 124 124 122 120 121 120 121 119 115 110 107 104 102 99 100 99 96 97 97 96 96 95 96 96 94 93 92 91 90 88 86 84 82 78 75 73 71 70 67 66 65 62 62 60 55 55 52 48
247 225 214 220 231 246 260 250 104 345 280 211 175 274 267 224 225 212 168 146 165 155 164 178 171 141 125 132 149 148 144 150 151 152 155 154 149 143 141 139 138 139 132 124 123 122 121 120 120 120 118 115 116 119 120 120 119 115 113 111 109 105 99 96 96 96 97 98 98 98 97 97 96 94 93 91 89 88 86 84 82 80 77 74 72 70 69 66 64 64 62 62 61 58 56 54 49
249 252 225 205 217 245 276 295 297 231 271 226 151 223 271 304 271 206 168 188 199 179 197 203 185 178 172 168 170 155 146 149 145 148 152 149 148 148 145 143 143 142 134 128 128 129 128 128 127 126 123 121 122 124 125 125 124 124 122 118 114 110 105 102 102 102 101 101 101 100 99 97 95 93 92 89 88 86 84 83 80 80 78 75 73 70 69 66 64 63 62 62 61 59 58 56 49
237 281 357 129 184 228 237 258 256 236 293 285 177 202 273 286 266 178 154 172 199 203 212 209 194 188 183 180 175 165 163 159 148 151 154 152 154 153 147 143 145 145 139 134 134 134 135 135 135 134 132 132 135 140 144 141 138 135 129 121 116 113 112 112 110 106 104 103 101 100 98 97 95 92 91 88 87 85 83 82 80 79 77 75 74 71 70 68 66 63 61 62 61 59 58 59 56
232 247 54 86 111 224 221 230 251 276 309 257 194 170 267 267 215 144 149 171 206 219 212 207 199 185 181 181 172 164 164 162 158 159 156 156 155 152 148 144 145 147 144 141 140 139 139 139 139 139 138 139 142 146 146 144 142 137 130 123 118 116 116 116 114 110 107 103 100 98 97 96 95 93 91 88 86 84 82 80 79 77 75 74 72 72 70 66 64 62 58 58 58 58 56 57 60
190 133 83 72 76 55 33 221 225 281 259 230 194 177 223 267 216 150 171 201 215 220 207 201 194 181 179 177 165 160 159 159 161 157 152 151 148 147 149 146 146 148 147 146 144 142 142 142 143 142 141 141 142 143 142 140 140 135 129 125 122 121 120 118 117 112 110 107 102 100 98 96 95 93 91 88 85 83 81 79 77 75 74 73 71 69 69 65 62 60 58 56 54 55 55 53 56
151 133 92 76 80 66 39 244 144 268 256 213 194 198 210 265 223 163 193 215 206 203 187 182 182 178 178 172 163 159 156 157 157 149 145 143 141 144 147 147 148 149 148 148 146 145 145 145 146 143 140 141 139 139 139 137 136 132 129 127 126 126 126 123 120 117 114 111 106 103 101 99 97 94 92 90 87 84 82 80 78 77 76 74 71 68 67 66 62 58 56 54 52 51 51 49 48
135 129 109 103 33 56 33 270 178 235 256 209 193 202 209 237 237 177 204 213 196 188 175 174 177 177 175 168 162 157 155 157 152 146 142 140 142 146 146 148 151 151 151 151 148 148 148 148 148 142 138 140 139 139 139 136 135 133 130 130 129 130 130 127 124 122 119 115 111 109 107 104 101 98 95 91 89 86 83 82 80 77 75 72 70 68 66 65 62 57 54 52 50 48 47 45 42
158 133 124 133 185 37 214 212 199 229 255 241 193 200 218 236 244 236 241 243 191 182 171 173 174 174 170 163 158 153 155 157 150 149 148 145 151 153 150 152 156 157 157 155 152 151 151 152 151 144 140 141 141 140 138 136 134 134 133 133 133 133 133 130 128 126 125 122 120 117 113 109 106 101 97 93 91 88 84 81 78 75 73 71 68 66 64 62 59 55 51 49 47 44 42 42 39
185 161 151 167 179 226 233 210 225 236 247 286 242 178 254 278 262 246 237 70 21 15 121 159 161 161 160 154 151 148 153 160 156 152 154 154 158 157 155 157 160 162 162 159 157 156 155 155 152 146 142 143 142 140 138 137 135 136 138 137 137 136 134 132 131 130 129 128 125 121 116 112 107 103 99 96 94 90 85 81 78 75 73 70 66 63 60 58 55 52 47 44 44 41 38 39 37
196 180 175 190 179 199 220 205 233 244 259 303 308 142 193 214 260 263 281 66 24 18 75 114 122 133 138 136 142 149 156 162 159 155 156 157 159 160 159 161 164 164 164 163 161 160 158 157 155 148 144 144 144 142 141 140 139 140 140 139 139 138 136 135 134 133 132 130 126 121 116 112 108 105 101 99 95 90 86 82 77 74 71 68 63 59 57 53 49 49 45 41 40 37 32 34 33
209 177 192 216 199 204 237 212 203 188 347 281 228 230 225 195 187 104 78 55 27 28 93 113 118 129 134 142 152 159 164 164 161 159 157 157 160 163 162 164 168 166 166 166 164 163 162 158 156 151 147 147 147 146 145 143 142 142 142 142 141 141 139 137 135 134 133 130 125 120 116 112 108 105 102 98 94 89 84 80 76 71 68 63 58 54 50 46 43 42 40 38 37 33 27 26 26
186 175 199 205 135 180 242 265 82 109 275 253 178 245 282 275 278 166 130 93 40 19 125 126 134 138 143 159 165 167 170 166 163 161 157 158 160 164 167 168 170 169 169 169 167 168 166 161 157 152 150 150 150 149 148 146 146 146 145 145 144 144 142 139 137 135 132 128 124 120 116 112 108 104 102 98 93 88 83 78 74 70 65 59 54 49 44 40 38 36 34 32 31 28 23 20 18
137 182 194 131 61 40 199 270 333 191 254 256 174 213 231 197 240 195 146 156 179 210 167 133 137 150 161 172 171 172 170 160 157 156 156 160 162 166 170 173 174 173 171 170 170 171 168 165 161 156 155 154 153 153 152 152 151 149 148 147 147 146 143 140 137 134 132 128 123 119 116 113 110 106 103 98 93 88 83 78 73 68 61 54 47 42 38 35 32 31 30 28 26 21 14 13 10
109 205 214 115 155 217 152 207 249 209 239 273 212 208 208 203 210 174 183 197 186 185 183 162 161 169 175 175 173 171 164 159 160 161 162 164 166 170 172 174 176 175 174 173 172 172 169 167 164 161 159 158 157 157 156 155 154 151 150 150 149 147 143 140 138 135 132 128 124 123 120 116 113 108 102 97 93 88 84 78 72 65 56 50 43 35 31 27 24 25 26 22 16 9 5 4 3
50 330 294 104 165 192 165 188 232 201 236 269 254 221 221 216 195 176 193 200 180 174 186 186 179 178 179 175 173 174 170 171 171 169 171 169 169 173 176 177 177 176 176 175 173 172 170 169 167 163 161 160 160 160 158 157 156 154 153 151 150 147 144 142 139 136 133 130 127 126 122 116 111 105 99 96 93 89 87 82 77 71 61 52 41 30 23 18 15 15 14 10 2 358 357 356 354
185 210 216 194 176 116 118 239 206 196 238 257 261 268 252 237 194 186 193 191 178 177 184 189 184 180 181 177 176 178 176 175 174 172 172 168 169 174 178 179 178 177 177 177 175 174 172 171 169 166 164 163 162 162 161 159 159 158 155 153 151 149 146 144 142 140 136 133 130 126 121 116 110 105 101 100 97 93 91 87 81 75 66 58 44 30 19 8 7 6 359 355 352 349 349 347 344
192 197 194 195 190 160 213 244 205 199 234 215 228 264 256 258 325 237 196 183 180 182 180 178 179 178 180 179 179 180 178 176 175 172 168 168 170 174 176 178 178 178 178 178 177 175 174 173 172 170 169 167 166 166 165 163 162 161 158 156 154 151 150 149 146 144 139 135 132 128 124 120 114 110 107 103 100 95 90 82 73 66 56 46 32 17 8 356 353 354 348 345 341 339 339 337 335